| time (UTC) | temp C | wind direction | speed KPH | gust KPH | rain 1hr cm | rain 24hr cm | rain mn cm | humidity % | barometer mb |
| 20260504190247 | 11 | 296 | 1.6 | 6.4 | 0.00 | 0.15 | 0.03 | 75 | 1012.6 |
| 20260504185715 | 11 | 298 | 4.8 | 6.4 | 0.00 | 0.15 | 0.03 | 74 | 1012.6 |
| 20260504184720 | 11 | 298 | 3.2 | 6.4 | 0.00 | 0.15 | 0.03 | 73 | 1012.5 |
| 20260504183232 | 11 | 305 | 3.2 | 12.9 | 0.00 | 0.15 | 0.03 | 72 | 1012.5 |
| 20260504182232 | 12 | 306 | 3.2 | 12.9 | 0.00 | 0.15 | 0.03 | 71 | 1012.5 |
| 20260504181233 | 12 | 316 | 4.8 | 11.3 | 0.00 | 0.15 | 0.03 | 71 | 1012.4 |
| 20260504180231 | 12 | 284 | 4.8 | 14.5 | 0.00 | 0.43 | 0.03 | 71 | 1012.5 |
| 20260504175232 | 12 | 325 | 4.8 | 14.5 | 0.00 | 0.79 | 0.03 | 71 | 1012.4 |
| 20260504174231 | 13 | 321 | 6.4 | 14.5 | 0.00 | 0.81 | 0.03 | 71 | 1012.4 |
| 20260504173232 | 13 | 295 | 6.4 | 14.5 | 0.00 | 0.81 | 0.03 | 70 | 1012.4 |
| 20260504172707 | 13 | 279 | 6.4 | 14.5 | 0.00 | 0.81 | 0.03 | 70 | 1012.4 |
| 20260504171231 | 13 | 279 | 6.4 | 14.5 | 0.00 | 0.81 | 0.03 | 71 | 1012.4 |
| 20260504170241 | 13 | 321 | 8.0 | 16.1 | 0.00 | 0.81 | 0.03 | 70 | 1012.4 |
| 20260504160232 | 15 | 319 | 8.0 | 16.1 | 0.00 | 1.07 | 0.03 | 66 | 1012.5 |
| 20260504150232 | 15 | 275 | 8.0 | 14.5 | 0.00 | 1.07 | 0.03 | 69 | 1012.8 |
| 20260504141231 | 15 | 294 | 9.7 | 19.3 | 0.00 | 1.07 | 0.03 | 67 | 1012.9 |
| 20260504140232 | 15 | 244 | 11.3 | 19.3 | 0.00 | 1.07 | 0.03 | 68 | 1012.9 |
| 20260504130232 | 14 | 0 | 9.7 | 17.7 | 0.00 | 1.07 | 0.03 | 73 | 1013.1 |
| 20260504120239 | 13 | 278 | 9.7 | 20.9 | 0.00 | 1.07 | 0.03 | 74 | 1013.0 |
| 20260504110231 | 13 | 220 | 4.8 | 22.5 | 0.00 | 1.07 | 0.03 | 76 | 1012.8 |
| 20260504081232 | 11 | 271 | 6.4 | 16.1 | 0.00 | 1.07 | 0.03 | 85 | 1012.1 |
| 20260504080231 | 11 | 259 | 9.7 | 19.3 | 0.00 | 1.07 | 0.03 | 85 | 1012.1 |
| 20260504070233 | 11 | 293 | 8.0 | 17.7 | 0.00 | 1.07 | 0.03 | 86 | 1011.7 |
| 20260504060242 | 11 | 236 | 14.5 | 22.5 | 0.00 | 1.07 | 0.03 | 85 | 1011.0 |
| 20260504050232 | 10 | 297 | 4.8 | 16.1 | 0.00 | 1.07 | 0.03 | 91 | 1010.3 |
| 20260504045231 | 10 | 296 | 6.4 | 19.3 | 0.00 | 1.07 | 0.03 | 91 | 1010.2 |
| 20260504044240 | 10 | 333 | 8.0 | 22.5 | 0.00 | 1.07 | 0.03 | 91 | 1010.1 |
| 20260504043708 | 10 | 333 | 6.4 | 19.3 | 0.00 | 1.07 | 0.03 | 92 | 1009.9 |
| 20260504042231 | 10 | 306 | 8.0 | 22.5 | 0.00 | 1.07 | 0.03 | 92 | 1009.9 |
| 20260504041239 | 10 | 301 | 11.3 | 30.6 | 0.00 | 1.07 | 0.03 | 93 | 1009.9 |
| 20260504040232 | 10 | 333 | 6.4 | 20.9 | 0.00 | 1.07 | 0.03 | 94 | 1009.7 |
| 20260504035712 | 10 | 315 | 8.0 | 19.3 | 0.00 | 1.07 | 0.03 | 94 | 1009.5 |
| 20260504034231 | 10 | 300 | 8.0 | 19.3 | 0.00 | 1.07 | 0.03 | 94 | 1009.5 |
| 20260504033232 | 10 | 271 | 8.0 | 25.7 | 0.00 | 1.07 | 0.03 | 95 | 1009.5 |
| 20260504032231 | 10 | 267 | 11.3 | 25.7 | 0.00 | 1.07 | 0.03 | 94 | 1009.4 |
| 20260504031231 | 10 | 230 | 12.9 | 22.5 | 0.00 | 1.07 | 0.03 | 94 | 1009.4 |
| 20260504030233 | 10 | 235 | 9.7 | 20.9 | 0.00 | 1.07 | 0.03 | 94 | 1009.3 |
| 20260504025231 | 10 | 277 | 8.0 | 20.9 | 0.00 | 1.07 | 0.03 | 94 | 1009.2 |
| 20260504024231 | 10 | 236 | 9.7 | 22.5 | 0.03 | 1.07 | 0.03 | 94 | 1009.2 |
| 20260504023231 | 10 | 243 | 8.0 | 25.7 | 0.03 | 1.07 | 0.03 | 93 | 1009.0 |
| 20260504022231 | 10 | 271 | 12.9 | 27.4 | 0.03 | 1.07 | 0.03 | 93 | 1008.9 |
| 20260504021244 | 10 | 226 | 11.3 | 27.4 | 0.03 | 1.07 | 0.03 | 93 | 1008.9 |
| 20260504020708 | 11 | 214 | 12.9 | 32.2 | 0.03 | 1.07 | 0.03 | 93 | 1008.8 |
| 20260504015231 | 11 | 335 | 14.5 | 30.6 | 0.03 | 1.04 | 0.03 | 93 | 1008.8 |
| 20260504014231 | 12 | 259 | 9.7 | 33.8 | 0.00 | 1.04 | 0.00 | 93 | 1008.7 |
| 20260504013231 | 12 | 287 | 16.1 | 29.0 | 0.00 | 1.04 | 0.00 | 93 | 1008.7 |
| 20260504012245 | 12 | 252 | 14.5 | 27.4 | 0.00 | 1.04 | 0.00 | 93 | 1008.7 |
| 20260504011705 | 12 | 240 | 12.9 | 25.7 | 0.00 | 1.04 | 0.00 | 92 | 1008.7 |
| 20260504010231 | 12 | 327 | 17.7 | 30.6 | 0.00 | 1.04 | 0.00 | 92 | 1008.6 |
| 20260504005232 | 12 | 195 | 12.9 | 29.0 | 0.00 | 1.04 | 0.00 | 93 | 1008.5 |
| 20260504004244 | 12 | 227 | 9.7 | 22.5 | 0.00 | 1.04 | 0.00 | 93 | 1008.5 |
| 20260504003232 | 13 | 231 | 9.7 | 19.3 | 0.00 | 1.04 | 0.00 | 93 | 1008.4 |
| 20260504002232 | 13 | 238 | 11.3 | 29.0 | 0.00 | 1.04 | 0.00 | 93 | 1008.4 |
| 20260504001711 | 13 | 266 | 9.7 | 29.0 | 0.00 | 1.04 | 0.00 | 93 | 1008.4 |
| 20260504000233 | 13 | 272 | 12.9 | 22.5 | 0.00 | 1.04 | 0.00 | 93 | 1008.4 |
| 20260503235232 | 13 | 244 | 6.4 | 19.3 | 0.00 | 1.04 | 0.00 | 94 | 1008.4 |
| 20260503234231 | 13 | 257 | 6.4 | 14.5 | 0.00 | 1.04 | 0.00 | 94 | 1008.4 |
| 20260503233232 | 13 | 186 | 8.0 | 14.5 | 0.00 | 1.04 | 0.00 | 95 | 1008.3 |
| 20260503232231 | 13 | 215 | 6.4 | 16.1 | 0.00 | 1.04 | 0.00 | 95 | 1008.4 |
| 20260503231231 | 13 | 235 | 6.4 | 14.5 | 0.00 | 1.04 | 0.00 | 95 | 1008.5 |
| 20260503230707 | 13 | 223 | 3.2 | 14.5 | 0.00 | 1.04 | 0.00 | 95 | 1008.4 |
| 20260503225245 | 13 | 233 | 4.8 | 11.3 | 0.00 | 1.04 | 0.00 | 95 | 1008.5 |
| 20260503224231 | 13 | 238 | 4.8 | 14.5 | 0.00 | 1.04 | 0.00 | 95 | 1008.4 |
| 20260503222232 | 13 | 229 | 4.8 | 16.1 | 0.00 | 1.04 | 0.00 | 96 | 1008.4 |
| 20260503221231 | 13 | 180 | 4.8 | 12.9 | 0.00 | 1.04 | 0.00 | 96 | 1008.3 |
| 20260503220232 | 13 | 211 | 9.7 | 19.3 | 0.00 | 1.04 | 0.00 | 96 | 1008.4 |
| 20260503215231 | 14 | 225 | 4.8 | 8.0 | 0.00 | 1.04 | 1.04 | 96 | 1008.4 |
| 20260503214232 | 14 | 202 | 1.6 | 8.0 | 0.00 | 1.04 | 1.04 | 96 | 1008.4 |
| 20260503213237 | 14 | 215 | 3.2 | 6.4 | 0.00 | 1.04 | 1.04 | 96 | 1008.4 |
| 20260503212242 | 14 | 219 | 4.8 | 8.0 | 0.00 | 1.04 | 1.04 | 96 | 1008.3 |
| 20260503211234 | 14 | 223 | 1.6 | 6.4 | 0.00 | 1.04 | 1.04 | 96 | 1008.5 |
| 20260503210234 | 14 | 225 | 1.6 | 6.4 | 0.03 | 1.04 | 1.04 | 96 | 1008.5 |
| 20260503205231 | 14 | 225 | 3.2 | 12.9 | 0.05 | 1.02 | 1.04 | 96 | 1008.6 |
| 20260503204232 | 14 | 208 | 4.8 | 12.9 | 0.10 | 1.02 | 1.04 | 96 | 1008.6 |
| 20260503203722 | 14 | 211 | 4.8 | 6.4 | 0.13 | 1.02 | 1.04 | 96 | 1008.5 |
| 20260503202231 | 14 | 223 | 1.6 | 8.0 | 0.13 | 1.02 | 1.04 | 96 | 1008.4 |
| 20260503201722 | 14 | 235 | 4.8 | 8.0 | 0.13 | 1.02 | 1.04 | 95 | 1008.5 |
| 20260503200711 | 14 | 257 | 4.8 | 12.9 | 0.10 | 1.02 | 1.02 | 96 | 1008.5 |
| 20260503195232 | 14 | 260 | 3.2 | 14.5 | 0.05 | 0.91 | 0.99 | 96 | 1008.4 |
| 20260503194710 | 14 | 28 | 0.0 | 0.0 | 0.03 | 0.91 | 0.94 | 96 | 1008.1 |
| 20260503193234 | 14 | 28 | 0.0 | 1.6 | 0.00 | 0.91 | 0.91 | 95 | 1008.1 |
| 20260503192232 | 13 | 28 | 0.0 | 3.2 | 0.00 | 0.91 | 0.91 | 95 | 1008.0 |